Year,Month,Day,Hour,Minute,Value (Times are PST for temperature in C)
2022,10,18,00,00,11.20
2022,10,18,00,01,11.20
2022,10,18,00,02,11.10
2022,10,18,00,03,11.10
2022,10,18,00,04,11.10
2022,10,18,00,05,11.10
2022,10,18,00,06,11.10
2022,10,18,00,07,11.10
2022,10,18,00,08,11.10
2022,10,18,00,09,11.00
2022,10,18,00,10,11.00
2022,10,18,00,11,11.00
2022,10,18,00,12,11.00
2022,10,18,00,13,11.00
2022,10,18,00,14,11.00
2022,10,18,00,15,11.00
2022,10,18,00,16,11.00
2022,10,18,00,17,11.00
2022,10,18,00,18,11.00
2022,10,18,00,19,10.90
2022,10,18,00,20,11.00
2022,10,18,00,21,10.90
2022,10,18,00,22,10.90
2022,10,18,00,23,10.90
2022,10,18,00,24,10.90
2022,10,18,00,25,10.90
2022,10,18,00,26,10.90
2022,10,18,00,27,10.90
2022,10,18,00,28,10.90
2022,10,18,00,29,10.90
2022,10,18,00,30,10.90
2022,10,18,00,31,10.80
2022,10,18,00,32,10.80
2022,10,18,00,33,10.80
2022,10,18,00,34,10.80
2022,10,18,00,35,10.80
2022,10,18,00,36,10.80
2022,10,18,00,37,10.80
2022,10,18,00,38,10.80
2022,10,18,00,39,10.80
2022,10,18,00,40,10.80
2022,10,18,00,41,10.80
2022,10,18,00,42,10.80
2022,10,18,00,43,10.80
2022,10,18,00,44,10.80
2022,10,18,00,45,10.80
2022,10,18,00,46,10.80
2022,10,18,00,47,10.80
2022,10,18,00,48,10.80
2022,10,18,00,49,10.90
2022,10,18,00,50,10.90
2022,10,18,00,51,10.90
2022,10,18,00,52,10.90
2022,10,18,00,53,10.90
2022,10,18,00,54,10.90
2022,10,18,00,55,10.90
2022,10,18,00,56,11.00
2022,10,18,00,57,11.00
2022,10,18,00,58,11.00
2022,10,18,00,59,11.00
2022,10,18,01,00,11.00
2022,10,18,01,01,11.00
2022,10,18,01,02,11.00
2022,10,18,01,03,11.00
2022,10,18,01,04,11.00
2022,10,18,01,05,11.00
2022,10,18,01,06,11.00
2022,10,18,01,07,11.00
2022,10,18,01,08,11.00
2022,10,18,01,09,11.00
2022,10,18,01,10,11.00
2022,10,18,01,11,11.00
2022,10,18,01,12,11.00
2022,10,18,01,13,11.00
2022,10,18,01,14,10.90
2022,10,18,01,15,10.90
2022,10,18,01,16,10.90
2022,10,18,01,17,10.90
2022,10,18,01,18,11.00
2022,10,18,01,19,11.00
2022,10,18,01,20,11.00
2022,10,18,01,21,11.00
2022,10,18,01,22,11.00
2022,10,18,01,23,11.00
2022,10,18,01,24,11.00
2022,10,18,01,25,11.00
2022,10,18,01,26,11.00
2022,10,18,01,27,11.00
2022,10,18,01,28,11.00
2022,10,18,01,29,11.00
2022,10,18,01,30,11.00
2022,10,18,01,31,10.90
2022,10,18,01,32,10.90
2022,10,18,01,33,10.90
2022,10,18,01,34,10.90
2022,10,18,01,35,10.90
2022,10,18,01,36,10.90
2022,10,18,01,37,10.90
2022,10,18,01,38,10.90
2022,10,18,01,39,10.90
2022,10,18,01,40,10.80
2022,10,18,01,41,10.80
2022,10,18,01,42,10.80
2022,10,18,01,43,10.80
2022,10,18,01,44,10.80
2022,10,18,01,45,10.80
2022,10,18,01,46,10.80
2022,10,18,01,47,10.80
2022,10,18,01,48,10.80
2022,10,18,01,49,10.80
2022,10,18,01,50,10.80
2022,10,18,01,51,10.80
2022,10,18,01,52,10.80
2022,10,18,01,53,10.80
2022,10,18,01,54,10.80
2022,10,18,01,55,10.80
2022,10,18,01,56,10.80
2022,10,18,01,57,10.80
2022,10,18,01,58,10.80
2022,10,18,01,59,10.80
2022,10,18,02,00,10.80
2022,10,18,02,01,10.80
2022,10,18,02,02,10.80
2022,10,18,02,03,10.80
2022,10,18,02,04,10.80
2022,10,18,02,05,10.80
2022,10,18,02,06,10.80
2022,10,18,02,07,10.80
2022,10,18,02,08,10.80
2022,10,18,02,09,10.80
2022,10,18,02,10,10.80
2022,10,18,02,11,10.80
2022,10,18,02,12,10.80
2022,10,18,02,13,10.80
2022,10,18,02,14,10.80
2022,10,18,02,15,10.80
2022,10,18,02,16,10.80
2022,10,18,02,17,10.80
2022,10,18,02,18,10.80
2022,10,18,02,19,10.80
2022,10,18,02,20,10.80
2022,10,18,02,21,10.80
2022,10,18,02,22,10.80
2022,10,18,02,23,10.80
2022,10,18,02,24,10.80
2022,10,18,02,25,10.80
2022,10,18,02,26,10.80
2022,10,18,02,27,10.80
2022,10,18,02,28,10.80
2022,10,18,02,29,10.80
2022,10,18,02,30,10.80
2022,10,18,02,31,10.80
2022,10,18,02,32,10.80
2022,10,18,02,33,10.80
2022,10,18,02,34,10.80
2022,10,18,02,35,10.80
2022,10,18,02,36,10.80
2022,10,18,02,37,10.80
2022,10,18,02,38,10.80
2022,10,18,02,39,10.80
2022,10,18,02,40,10.80
2022,10,18,02,41,10.80
2022,10,18,02,42,10.80
2022,10,18,02,43,10.80
2022,10,18,02,44,10.80
2022,10,18,02,45,10.80
2022,10,18,02,46,10.80
2022,10,18,02,47,10.80
2022,10,18,02,48,10.80
2022,10,18,02,49,10.80
2022,10,18,02,50,10.80
2022,10,18,02,51,10.80
2022,10,18,02,52,10.80
2022,10,18,02,53,10.80
2022,10,18,02,54,10.80
2022,10,18,02,55,10.80
2022,10,18,02,56,10.80
2022,10,18,02,57,10.80
2022,10,18,02,58,10.80
2022,10,18,02,59,10.80
2022,10,18,03,00,10.80
2022,10,18,03,01,10.80
2022,10,18,03,02,10.80
2022,10,18,03,03,10.70
2022,10,18,03,04,10.80
2022,10,18,03,05,10.80
2022,10,18,03,06,10.80
2022,10,18,03,07,10.80
2022,10,18,03,08,10.80
2022,10,18,03,09,10.70
2022,10,18,03,10,10.80
2022,10,18,03,11,10.80
2022,10,18,03,12,10.80
2022,10,18,03,13,10.80
2022,10,18,03,14,10.80
2022,10,18,03,15,10.80
2022,10,18,03,16,10.80
2022,10,18,03,17,10.80
2022,10,18,03,18,10.80
2022,10,18,03,19,10.80
2022,10,18,03,20,10.80
2022,10,18,03,21,10.80
2022,10,18,03,22,10.80
2022,10,18,03,23,10.80
2022,10,18,03,24,10.80
2022,10,18,03,25,10.80
2022,10,18,03,26,10.80
2022,10,18,03,27,10.80
2022,10,18,03,28,10.80
2022,10,18,03,29,10.80
2022,10,18,03,30,10.80
2022,10,18,03,31,10.80
2022,10,18,03,32,10.80
2022,10,18,03,33,10.80
2022,10,18,03,34,10.80
2022,10,18,03,35,10.80
2022,10,18,03,36,10.80
2022,10,18,03,37,10.80
2022,10,18,03,38,10.80
2022,10,18,03,39,10.80
2022,10,18,03,40,10.80
2022,10,18,03,41,10.80
2022,10,18,03,42,10.80
2022,10,18,03,43,10.80
2022,10,18,03,44,10.80
2022,10,18,03,45,10.80
2022,10,18,03,46,10.80
2022,10,18,03,47,10.80
2022,10,18,03,48,10.80
2022,10,18,03,49,10.80
2022,10,18,03,50,10.80
2022,10,18,03,51,10.80
2022,10,18,03,52,10.80
2022,10,18,03,53,10.80
2022,10,18,03,54,10.80
2022,10,18,03,55,10.80
2022,10,18,03,56,10.80
2022,10,18,03,57,10.80
2022,10,18,03,58,10.80
2022,10,18,03,59,10.80
2022,10,18,04,00,10.80
2022,10,18,04,01,10.80
2022,10,18,04,02,10.80
2022,10,18,04,03,10.80
2022,10,18,04,04,10.80
2022,10,18,04,05,10.80
2022,10,18,04,06,10.80
2022,10,18,04,07,10.70
2022,10,18,04,08,10.70
2022,10,18,04,09,10.70
2022,10,18,04,10,10.70
2022,10,18,04,11,10.70
2022,10,18,04,12,10.70
2022,10,18,04,13,10.70
2022,10,18,04,14,10.70
2022,10,18,04,15,10.70
2022,10,18,04,16,10.70
2022,10,18,04,17,10.70
2022,10,18,04,18,10.70
2022,10,18,04,19,10.70
2022,10,18,04,20,10.70
2022,10,18,04,21,10.70
2022,10,18,04,22,10.70
2022,10,18,04,23,10.70
2022,10,18,04,24,10.70
2022,10,18,04,25,10.70
2022,10,18,04,26,10.70
2022,10,18,04,27,10.70
2022,10,18,04,28,10.70
2022,10,18,04,29,10.70
2022,10,18,04,30,10.70
2022,10,18,04,31,10.70
2022,10,18,04,32,10.70
2022,10,18,04,33,10.70
2022,10,18,04,34,10.70
2022,10,18,04,35,10.70
2022,10,18,04,36,10.70
2022,10,18,04,37,10.60
2022,10,18,04,38,10.70
2022,10,18,04,39,10.70
2022,10,18,04,40,10.70
2022,10,18,04,41,10.70
2022,10,18,04,42,10.70
2022,10,18,04,43,10.70
2022,10,18,04,44,10.70
2022,10,18,04,45,10.70
2022,10,18,04,46,10.60
2022,10,18,04,47,10.60
2022,10,18,04,48,10.70
2022,10,18,04,49,10.60
2022,10,18,04,50,10.60
2022,10,18,04,51,10.60
2022,10,18,04,52,10.60
2022,10,18,04,53,10.60
2022,10,18,04,54,10.60
2022,10,18,04,55,10.60
2022,10,18,04,56,10.60
2022,10,18,04,57,10.60
2022,10,18,04,58,10.60
2022,10,18,04,59,10.60
2022,10,18,05,00,10.60
2022,10,18,05,01,10.60
2022,10,18,05,02,10.60
2022,10,18,05,03,10.60
2022,10,18,05,04,10.60
2022,10,18,05,05,10.60
2022,10,18,05,06,10.60
2022,10,18,05,07,10.60
2022,10,18,05,08,10.60
2022,10,18,05,09,10.60
2022,10,18,05,10,10.60
2022,10,18,05,11,10.60
2022,10,18,05,12,10.50
2022,10,18,05,13,10.50
2022,10,18,05,14,10.50
2022,10,18,05,15,10.50
2022,10,18,05,16,10.50
2022,10,18,05,17,10.50
2022,10,18,05,18,10.40
2022,10,18,05,19,10.40
2022,10,18,05,20,10.40
2022,10,18,05,21,10.40
2022,10,18,05,22,10.40
2022,10,18,05,23,10.40
2022,10,18,05,24,10.40
2022,10,18,05,25,10.40
2022,10,18,05,26,10.40
2022,10,18,05,27,10.40
2022,10,18,05,28,10.40
2022,10,18,05,29,10.30
2022,10,18,05,30,10.30
2022,10,18,05,31,10.30
2022,10,18,05,32,10.30
2022,10,18,05,33,10.30
2022,10,18,05,34,10.20
2022,10,18,05,35,10.20
2022,10,18,05,36,10.20
2022,10,18,05,37,10.20
2022,10,18,05,38,10.20
2022,10,18,05,39,10.20
2022,10,18,05,40,10.20
2022,10,18,05,41,10.20
2022,10,18,05,42,10.20
2022,10,18,05,43,10.20
2022,10,18,05,44,10.20
2022,10,18,05,45,10.20
2022,10,18,05,46,10.20
2022,10,18,05,47,10.10
2022,10,18,05,48,10.10
2022,10,18,05,49,10.10
2022,10,18,05,50,10.10
2022,10,18,05,51,10.10
2022,10,18,05,52,10.10
2022,10,18,05,53,10.10
2022,10,18,05,54,10.10
2022,10,18,05,55,10.10
2022,10,18,05,56,10.10
2022,10,18,05,57,10.10
2022,10,18,05,58,10.10
2022,10,18,05,59,10.10
2022,10,18,06,00,10.10
2022,10,18,06,01,10.00
2022,10,18,06,02,10.10
2022,10,18,06,03,10.10
2022,10,18,06,04,10.00
2022,10,18,06,05,10.00
2022,10,18,06,06,10.00
2022,10,18,06,07,10.00
2022,10,18,06,08,10.00
2022,10,18,06,09,10.10
2022,10,18,06,10,10.10
2022,10,18,06,11,10.10
2022,10,18,06,12,10.10
2022,10,18,06,13,10.10
2022,10,18,06,14,10.10
2022,10,18,06,15,10.10
2022,10,18,06,16,10.10
2022,10,18,06,17,10.10
2022,10,18,06,18,10.10
2022,10,18,06,19,10.10
2022,10,18,06,20,10.10
2022,10,18,06,21,10.10
2022,10,18,06,22,10.10
2022,10,18,06,23,10.10
2022,10,18,06,24,10.10
2022,10,18,06,25,10.20
2022,10,18,06,26,10.20
2022,10,18,06,27,10.20
2022,10,18,06,28,10.20
2022,10,18,06,29,10.20
2022,10,18,06,30,10.20
2022,10,18,06,31,10.20
2022,10,18,06,32,10.20
2022,10,18,06,33,10.20
2022,10,18,06,34,10.20
2022,10,18,06,35,10.20
2022,10,18,06,36,10.20
2022,10,18,06,37,10.20
2022,10,18,06,38,10.20
2022,10,18,06,39,10.20
2022,10,18,06,40,10.20
2022,10,18,06,41,10.20
2022,10,18,06,42,10.20
2022,10,18,06,43,10.20
2022,10,18,06,44,10.20
2022,10,18,06,45,10.20
2022,10,18,06,46,10.20
2022,10,18,06,47,10.20
2022,10,18,06,48,10.20
2022,10,18,06,49,10.20
2022,10,18,06,50,10.20
2022,10,18,06,51,10.20
2022,10,18,06,52,10.20
2022,10,18,06,53,10.20
2022,10,18,06,54,10.20
2022,10,18,06,55,10.20
2022,10,18,06,56,10.20
2022,10,18,06,57,10.20
2022,10,18,06,58,10.20
2022,10,18,06,59,10.20
2022,10,18,07,00,10.20
2022,10,18,07,01,10.20
2022,10,18,07,02,10.20
2022,10,18,07,03,10.20
2022,10,18,07,04,10.20
2022,10,18,07,05,10.10
2022,10,18,07,06,10.10
2022,10,18,07,07,10.10
2022,10,18,07,08,10.10
2022,10,18,07,09,10.10
2022,10,18,07,10,10.10
2022,10,18,07,11,10.10
2022,10,18,07,12,10.10
2022,10,18,07,13,10.10
2022,10,18,07,14,10.10
2022,10,18,07,15,10.10
2022,10,18,07,16,10.10
2022,10,18,07,17,10.10
2022,10,18,07,18,10.10
2022,10,18,07,19,10.10
2022,10,18,07,20,10.10
2022,10,18,07,21,10.10
2022,10,18,07,22,10.10
2022,10,18,07,23,10.10
2022,10,18,07,24,10.10
2022,10,18,07,25,10.10
2022,10,18,07,26,10.10
2022,10,18,07,27,10.10
2022,10,18,07,28,10.10
2022,10,18,07,29,10.10
2022,10,18,07,30,10.10
2022,10,18,07,31,10.10
2022,10,18,07,32,10.10
2022,10,18,07,33,10.10
2022,10,18,07,34,10.10
2022,10,18,07,35,10.10
2022,10,18,07,36,10.00
2022,10,18,07,37,10.00
2022,10,18,07,38,10.00
2022,10,18,07,39,10.00
2022,10,18,07,40,10.00
2022,10,18,07,41,10.00
2022,10,18,07,42,10.00
2022,10,18,07,43,10.00
2022,10,18,07,44,10.00
2022,10,18,07,45,10.00
2022,10,18,07,46,10.00
2022,10,18,07,47,10.00
2022,10,18,07,48,10.00
2022,10,18,07,49,10.00
2022,10,18,07,50,10.00
2022,10,18,07,51,10.00
2022,10,18,07,52,10.00
2022,10,18,07,53,10.00
2022,10,18,07,54,10.00
2022,10,18,07,55,10.00
2022,10,18,07,56,10.10
2022,10,18,07,57,10.10
2022,10,18,07,58,10.10
2022,10,18,07,59,10.10
2022,10,18,08,00,10.10
2022,10,18,08,01,10.20
2022,10,18,08,02,10.20
2022,10,18,08,03,10.20
2022,10,18,08,04,10.20
2022,10,18,08,05,10.30
2022,10,18,08,06,10.30
2022,10,18,08,07,10.30
2022,10,18,08,08,10.30
2022,10,18,08,09,10.30
2022,10,18,08,10,10.30
2022,10,18,08,11,10.40
2022,10,18,08,12,10.40
2022,10,18,08,13,10.40
2022,10,18,08,14,10.40
2022,10,18,08,15,10.40
2022,10,18,08,16,10.50
2022,10,18,08,17,10.50
2022,10,18,08,18,10.50
2022,10,18,08,19,10.50
2022,10,18,08,20,10.60
2022,10,18,08,21,10.70
2022,10,18,08,22,10.70
2022,10,18,08,23,10.70
2022,10,18,08,24,10.70
2022,10,18,08,25,10.80
2022,10,18,08,26,10.80
2022,10,18,08,27,10.80
2022,10,18,08,28,10.80
2022,10,18,08,29,10.90
2022,10,18,08,30,10.90
2022,10,18,08,31,10.90
2022,10,18,08,32,10.90
2022,10,18,08,33,10.90
2022,10,18,08,34,11.00
2022,10,18,08,35,11.00
2022,10,18,08,36,11.00
2022,10,18,08,37,11.10
2022,10,18,08,38,11.10
2022,10,18,08,39,11.10
2022,10,18,08,40,11.10
2022,10,18,08,41,11.10
2022,10,18,08,42,11.20
2022,10,18,08,43,11.20
2022,10,18,08,44,11.20
2022,10,18,08,45,11.20
2022,10,18,08,46,11.20
2022,10,18,08,47,11.20
2022,10,18,08,48,11.20
2022,10,18,08,49,11.30
2022,10,18,08,50,11.30
2022,10,18,08,51,11.30
2022,10,18,08,52,11.30
2022,10,18,19,02,12.90
2022,10,18,19,03,12.90
2022,10,18,19,04,12.90
2022,10,18,19,05,12.90
2022,10,18,19,06,12.80
2022,10,18,19,07,12.80
2022,10,18,19,08,12.80
2022,10,18,19,09,12.80
2022,10,18,19,10,12.80
2022,10,18,19,11,12.80
2022,10,18,19,12,12.80
2022,10,18,19,13,12.90
2022,10,18,19,14,12.90
2022,10,18,19,15,12.90
2022,10,18,19,16,12.90
2022,10,18,19,17,12.90
2022,10,18,19,18,12.90
2022,10,18,19,19,12.90
2022,10,18,19,20,12.90
2022,10,18,19,21,13.00
2022,10,18,19,22,13.00
2022,10,18,19,23,13.00
2022,10,18,19,24,13.00
2022,10,18,19,25,13.00
2022,10,18,19,26,13.00
2022,10,18,19,27,13.00
2022,10,18,19,28,12.90
2022,10,18,19,29,12.90
2022,10,18,19,30,12.90
2022,10,18,19,31,12.90
2022,10,18,19,32,12.80
2022,10,18,19,33,12.80
2022,10,18,19,34,12.80
2022,10,18,19,35,12.80
2022,10,18,19,36,12.80
2022,10,18,19,37,12.80
2022,10,18,19,38,12.70
2022,10,18,19,39,12.80
2022,10,18,19,40,12.70
2022,10,18,19,41,12.70
2022,10,18,19,42,12.70
2022,10,18,19,43,12.70
2022,10,18,19,44,12.70
2022,10,18,19,45,12.70
2022,10,18,19,46,12.70
2022,10,18,19,47,12.70
2022,10,18,19,48,12.70
2022,10,18,19,49,12.70
2022,10,18,19,50,12.70
2022,10,18,19,51,12.70
2022,10,18,19,52,12.70
2022,10,18,19,53,12.70
2022,10,18,19,54,12.70
2022,10,18,19,55,12.60
2022,10,18,19,56,12.60
2022,10,18,19,57,12.60
2022,10,18,19,58,12.60
2022,10,18,19,59,12.60
2022,10,18,20,00,12.60
2022,10,18,20,01,12.60
2022,10,18,20,02,12.60
2022,10,18,20,03,12.60
2022,10,18,20,04,12.60
2022,10,18,20,05,12.60
2022,10,18,20,06,12.60
2022,10,18,20,07,12.60
2022,10,18,20,08,12.60
2022,10,18,20,09,12.60
2022,10,18,20,10,12.60
2022,10,18,20,11,12.60
2022,10,18,20,12,12.60
2022,10,18,20,13,12.60
2022,10,18,20,14,12.60
2022,10,18,20,15,12.60
2022,10,18,20,16,12.60
2022,10,18,20,17,12.60
2022,10,18,20,18,12.60
2022,10,18,20,19,12.60
2022,10,18,20,20,12.60
2022,10,18,20,21,12.60
2022,10,18,20,22,12.70
2022,10,18,20,23,12.70
2022,10,18,20,24,12.70
2022,10,18,20,25,12.70
2022,10,18,20,26,12.70
2022,10,18,20,27,12.70
2022,10,18,20,28,12.70
2022,10,18,20,29,12.70
2022,10,18,20,30,12.70
2022,10,18,20,31,12.70
2022,10,18,20,32,12.70
2022,10,18,20,33,12.70
2022,10,18,20,34,12.70
2022,10,18,20,35,12.60
2022,10,18,20,36,12.60
2022,10,18,20,37,12.60
2022,10,18,20,38,12.60
2022,10,18,20,39,12.60
2022,10,18,20,40,12.60
2022,10,18,20,41,12.60
2022,10,18,20,42,12.60
2022,10,18,20,43,12.60
2022,10,18,20,44,12.60
2022,10,18,20,45,12.60
2022,10,18,20,46,12.60
2022,10,18,20,47,12.60
2022,10,18,20,48,12.60
2022,10,18,20,49,12.60
2022,10,18,20,50,12.60
2022,10,18,20,51,12.60
2022,10,18,20,52,12.60
2022,10,18,20,53,12.60
2022,10,18,20,54,12.60
2022,10,18,20,55,12.60
2022,10,18,20,56,12.60
2022,10,18,20,57,12.50
2022,10,18,20,58,12.60
2022,10,18,20,59,12.50
2022,10,18,21,00,12.50
2022,10,18,21,01,12.50
2022,10,18,21,02,12.50
2022,10,18,21,03,12.50
2022,10,18,21,04,12.50
2022,10,18,21,05,12.50
2022,10,18,21,06,12.50
2022,10,18,21,07,12.50
2022,10,18,21,08,12.50
2022,10,18,21,09,12.50
2022,10,18,21,10,12.50
2022,10,18,21,11,12.50
2022,10,18,21,12,12.50
2022,10,18,21,13,12.50
2022,10,18,21,14,12.50
2022,10,18,21,15,12.50
2022,10,18,21,16,12.50
2022,10,18,21,17,12.50
2022,10,18,21,18,12.40
2022,10,18,21,19,12.40
2022,10,18,21,20,12.40
2022,10,18,21,21,12.40
2022,10,18,21,22,12.40
2022,10,18,21,23,12.40
2022,10,18,21,24,12.40
2022,10,18,21,25,12.40
2022,10,18,21,26,12.40
2022,10,18,21,27,12.40
2022,10,18,21,28,12.40
2022,10,18,21,29,12.40
2022,10,18,21,30,12.40
2022,10,18,21,31,12.40
2022,10,18,21,32,12.40
2022,10,18,21,33,12.40
2022,10,18,21,34,12.30
2022,10,18,21,35,12.30
2022,10,18,21,36,12.30
2022,10,18,21,37,12.30
2022,10,18,21,38,12.30
2022,10,18,21,39,12.30
2022,10,18,21,40,12.30
2022,10,18,21,41,12.30
2022,10,18,21,42,12.40
2022,10,18,21,43,12.40
2022,10,18,21,44,12.40
2022,10,18,21,45,12.40
2022,10,18,21,46,12.40
2022,10,18,21,47,12.40
2022,10,18,21,48,12.40
2022,10,18,21,49,12.40
2022,10,18,21,50,12.40
2022,10,18,21,51,12.40
2022,10,18,21,52,12.30
2022,10,18,21,53,12.30
2022,10,18,21,54,12.30
2022,10,18,21,55,12.30
2022,10,18,21,56,12.30
2022,10,18,21,57,12.30
2022,10,18,21,58,12.30
2022,10,18,21,59,12.30
2022,10,18,22,00,12.30
2022,10,18,22,01,12.30
2022,10,18,22,02,12.20
2022,10,18,22,03,12.20
2022,10,18,22,04,12.20
2022,10,18,22,05,12.20
2022,10,18,22,06,12.20
2022,10,18,22,07,12.20
2022,10,18,22,08,12.20
2022,10,18,22,09,12.20
2022,10,18,22,10,12.20
2022,10,18,22,11,12.20
2022,10,18,22,12,12.20
2022,10,18,22,13,12.20
2022,10,18,22,14,12.20
2022,10,18,22,15,12.20
2022,10,18,22,16,12.20
2022,10,18,22,17,12.20
2022,10,18,22,18,12.20
2022,10,18,22,19,12.20
2022,10,18,22,20,12.20
2022,10,18,22,21,12.20
2022,10,18,22,22,12.20
2022,10,18,22,23,12.20
2022,10,18,22,24,12.20
2022,10,18,22,25,12.10
2022,10,18,22,26,12.10
2022,10,18,22,27,12.10
2022,10,18,22,28,12.10
2022,10,18,22,29,12.10
2022,10,18,22,30,12.10
2022,10,18,22,31,12.10
2022,10,18,22,32,12.10
2022,10,18,22,33,12.10
2022,10,18,22,34,12.10
2022,10,18,22,35,12.10
2022,10,18,22,36,12.10
2022,10,18,22,37,12.10
2022,10,18,22,38,12.10
2022,10,18,22,39,12.00
2022,10,18,22,40,12.00
2022,10,18,22,41,12.00
2022,10,18,22,42,12.00
2022,10,18,22,43,12.00
2022,10,18,22,44,11.90
2022,10,18,22,45,11.90
2022,10,18,22,46,11.90
2022,10,18,22,47,11.90
2022,10,18,22,48,11.90
2022,10,18,22,49,11.90
2022,10,18,22,50,11.90
2022,10,18,22,51,11.90
2022,10,18,22,52,11.90
2022,10,18,22,53,11.90
2022,10,18,22,54,11.90
2022,10,18,22,55,11.90
2022,10,18,22,56,11.90
2022,10,18,22,57,11.90
2022,10,18,22,58,11.80
2022,10,18,22,59,11.80
2022,10,18,23,00,11.80
2022,10,18,23,01,11.80
2022,10,18,23,02,11.80
2022,10,18,23,03,11.80
2022,10,18,23,04,11.80
2022,10,18,23,05,11.80
2022,10,18,23,06,11.80
2022,10,18,23,07,11.80
2022,10,18,23,08,11.80
2022,10,18,23,09,11.80
2022,10,18,23,10,11.80
2022,10,18,23,11,11.80
2022,10,18,23,12,11.80
2022,10,18,23,13,11.80
2022,10,18,23,14,11.80
2022,10,18,23,15,11.80
2022,10,18,23,16,11.80
2022,10,18,23,17,11.80
2022,10,18,23,18,11.80
2022,10,18,23,19,11.80
2022,10,18,23,20,11.80
2022,10,18,23,21,11.80
2022,10,18,23,22,11.80
2022,10,18,23,23,11.80
2022,10,18,23,24,11.80
2022,10,18,23,25,11.80
2022,10,18,23,26,11.80
2022,10,18,23,27,11.70
2022,10,18,23,28,11.70
2022,10,18,23,29,11.70
2022,10,18,23,30,11.70
2022,10,18,23,31,11.70
2022,10,18,23,32,11.70
2022,10,18,23,33,11.70
2022,10,18,23,34,11.60
2022,10,18,23,35,11.60
2022,10,18,23,36,11.60
2022,10,18,23,37,11.60
2022,10,18,23,38,11.60
2022,10,18,23,39,11.60
2022,10,18,23,40,11.60
2022,10,18,23,41,11.60
2022,10,18,23,42,11.60
2022,10,18,23,43,11.60
2022,10,18,23,44,11.60
2022,10,18,23,45,11.50
2022,10,18,23,46,11.60
2022,10,18,23,47,11.60
2022,10,18,23,48,11.50
2022,10,18,23,49,11.50
2022,10,18,23,50,11.60
2022,10,18,23,51,11.60
2022,10,18,23,52,11.60
2022,10,18,23,53,11.60
2022,10,18,23,54,11.60
2022,10,18,23,55,11.60
2022,10,18,23,56,11.60
2022,10,18,23,57,11.60
2022,10,18,23,58,11.60
2022,10,18,23,59,11.60
